owner,sensor,date,latitude,longitude,vertical_datum,sea_water_practical_salinity,qcFlag 
DISL,ioos:station:DISL:KATA:1,2016-06-01T00:00:00Z,30.2583,-88.2131,4.096,22.17,1111122 
DISL,ioos:station:DISL:KATA:1,2016-06-01T00:30:00Z,30.2583,-88.2131,4.093,22.13,1111122 
DISL,ioos:station:DISL:KATA:1,2016-06-01T01:00:00Z,30.2583,-88.2131,4.093,22.19,1111122 
DISL,ioos:station:DISL:KATA:1,2016-06-01T01:30:00Z,30.2583,-88.2131,4.107,22.15,1111122 
DISL,ioos:station:DISL:KATA:1,2016-06-01T02:00:00Z,30.2583,-88.2131,4.106,22.13,1111122 
DISL,ioos:station:DISL:KATA:1,2016-06-01T02:30:00Z,30.2583,-88.2131,4.12,22.13,1111122 
DISL,ioos:station:DISL:KATA:1,2016-06-01T03:00:00Z,30.2583,-88.2131,4.138,22.18,1111122 
DISL,ioos:station:DISL:KATA:1,2016-06-01T03:30:00Z,30.2583,-88.2131,4.135,22.15,1111122 
DISL,ioos:station:DISL:KATA:1,2016-06-01T04:00:00Z,30.2583,-88.2131,4.14,22.05,1111122 
DISL,ioos:station:DISL:KATA:1,2016-06-01T04:30:00Z,30.2583,-88.2131,4.132,21.96,1111122 
DISL,ioos:station:DISL:KATA:1,2016-06-01T05:00:00Z,30.2583,-88.2131,4.112,22.03,1111122 
DISL,ioos:station:DISL:KATA:1,2016-06-01T05:30:00Z,30.2583,-88.2131,4.093,21.94,1111122 
DISL,ioos:station:DISL:KATA:1,2016-06-01T06:00:00Z,30.2583,-88.2131,4.097,21.95,1111122 
DISL,ioos:station:DISL:KATA:1,2016-06-01T06:30:00Z,30.2583,-88.2131,4.097,22.0,1111122 
DISL,ioos:station:DISL:KATA:1,2016-06-01T07:00:00Z,30.2583,-88.2131,4.105,22.04,1111122 
DISL,ioos:station:DISL:KATA:1,2016-06-01T07:30:00Z,30.2583,-88.2131,4.124,22.07,1111122 
DISL,ioos:station:DISL:KATA:1,2016-06-01T08:00:00Z,30.2583,-88.2131,4.151,22.07,1111122 
DISL,ioos:station:DISL:KATA:1,2016-06-01T08:30:00Z,30.2583,-88.2131,4.164,22.04,1111122 
DISL,ioos:station:DISL:KATA:1,2016-06-01T09:00:00Z,30.2583,-88.2131,4.196,22.08,1111122 
DISL,ioos:station:DISL:KATA:1,2016-06-01T09:30:00Z,30.2583,-88.2131,4.22,21.73,1111122 
DISL,ioos:station:DISL:KATA:1,2016-06-01T10:00:00Z,30.2583,-88.2131,4.245,21.27,1111122 
DISL,ioos:station:DISL:KATA:1,2016-06-01T10:30:00Z,30.2583,-88.2131,4.251,21.21,1111122 
DISL,ioos:station:DISL:KATA:1,2016-06-01T11:00:00Z,30.2583,-88.2131,4.264,20.96,1111122 
DISL,ioos:station:DISL:KATA:1,2016-06-01T11:30:00Z,30.2583,-88.2131,4.264,20.95,1111122 
DISL,ioos:station:DISL:KATA:1,2016-06-01T12:00:00Z,30.2583,-88.2131,4.262,21.83,1111122 
DISL,ioos:station:DISL:KATA:1,2016-06-01T12:30:00Z,30.2583,-88.2131,4.261,21.83,1111122 
DISL,ioos:station:DISL:KATA:1,2016-06-01T13:00:00Z,30.2583,-88.2131,4.254,21.72,1111122 
DISL,ioos:station:DISL:KATA:1,2016-06-01T13:30:00Z,30.2583,-88.2131,4.254,21.66,1111122 
DISL,ioos:station:DISL:KATA:1,2016-06-01T14:00:00Z,30.2583,-88.2131,4.264,21.62,1111122 
DISL,ioos:station:DISL:KATA:1,2016-06-01T14:30:00Z,30.2583,-88.2131,4.263,21.44,1111122 
DISL,ioos:station:DISL:KATA:1,2016-06-01T15:00:00Z,30.2583,-88.2131,4.257,21.25,1111122 
DISL,ioos:station:DISL:KATA:1,2016-06-01T15:30:00Z,30.2583,-88.2131,4.244,21.31,1111122 
DISL,ioos:station:DISL:KATA:1,2016-06-01T16:00:00Z,30.2583,-88.2131,4.226,21.07,1111122 
DISL,ioos:station:DISL:KATA:1,2016-06-01T16:30:00Z,30.2583,-88.2131,4.191,21.29,1111122 
DISL,ioos:station:DISL:KATA:1,2016-06-01T17:00:00Z,30.2583,-88.2131,4.154,21.16,1111122 
DISL,ioos:station:DISL:KATA:1,2016-06-01T17:30:00Z,30.2583,-88.2131,4.124,21.33,1111122 
DISL,ioos:station:DISL:KATA:1,2016-06-01T18:00:00Z,30.2583,-88.2131,4.077,21.11,1111122 
DISL,ioos:station:DISL:KATA:1,2016-06-01T18:30:00Z,30.2583,-88.2131,4.036,21.12,1111122 
DISL,ioos:station:DISL:KATA:1,2016-06-01T19:00:00Z,30.2583,-88.2131,3.999,21.1,1111122 
DISL,ioos:station:DISL:KATA:1,2016-06-01T19:30:00Z,30.2583,-88.2131,3.976,21.11,1111122 
DISL,ioos:station:DISL:KATA:1,2016-06-01T20:00:00Z,30.2583,-88.2131,3.95,21.14,1111122 
DISL,ioos:station:DISL:KATA:1,2016-06-01T20:30:00Z,30.2583,-88.2131,3.947,21.13,1111122 
DISL,ioos:station:DISL:KATA:1,2016-06-01T21:00:00Z,30.2583,-88.2131,3.937,21.14,1111122 
DISL,ioos:station:DISL:KATA:1,2016-06-01T21:30:00Z,30.2583,-88.2131,3.951,21.16,1111122 
DISL,ioos:station:DISL:KATA:1,2016-06-01T22:00:00Z,30.2583,-88.2131,3.952,21.17,1111122 
DISL,ioos:station:DISL:KATA:1,2016-06-01T22:30:00Z,30.2583,-88.2131,3.958,21.16,1111122 
DISL,ioos:station:DISL:KATA:1,2016-06-01T23:00:00Z,30.2583,-88.2131,3.96,21.17,1111122 
DISL,ioos:station:DISL:KATA:1,2016-06-01T23:30:00Z,30.2583,-88.2131,3.963,21.23,1111122 
DISL,ioos:station:DISL:KATA:1,2016-06-02T00:00:00Z,30.2583,-88.2131,3.964,21.3,1111122 
DISL,ioos:station:DISL:KATA:1,2016-06-02T00:30:00Z,30.2583,-88.2131,3.969,21.31,1111122 
DISL,ioos:station:DISL:KATA:1,2016-06-02T01:00:00Z,30.2583,-88.2131,3.98,21.29,1111122 
DISL,ioos:station:DISL:KATA:1,2016-06-02T01:30:00Z,30.2583,-88.2131,3.999,21.36,1111122 
DISL,ioos:station:DISL:KATA:1,2016-06-02T02:00:00Z,30.2583,-88.2131,4.018,21.23,1111122 
DISL,ioos:station:DISL:KATA:1,2016-06-02T02:30:00Z,30.2583,-88.2131,4.051,21.08,1111122 
DISL,ioos:station:DISL:KATA:1,2016-06-02T03:00:00Z,30.2583,-88.2131,4.08,21.0,1111122 
DISL,ioos:station:DISL:KATA:1,2016-06-02T03:30:00Z,30.2583,-88.2131,4.104,20.99,1111122 
DISL,ioos:station:DISL:KATA:1,2016-06-02T04:00:00Z,30.2583,-88.2131,4.119,20.92,1111122 
DISL,ioos:station:DISL:KATA:1,2016-06-02T04:30:00Z,30.2583,-88.2131,4.131,20.89,1111122 
DISL,ioos:station:DISL:KATA:1,2016-06-02T05:00:00Z,30.2583,-88.2131,4.134,20.96,1111122 
DISL,ioos:station:DISL:KATA:1,2016-06-02T05:30:00Z,30.2583,-88.2131,4.121,20.95,1111122 
DISL,ioos:station:DISL:KATA:1,2016-06-02T06:00:00Z,30.2583,-88.2131,4.115,20.94,1111122 
DISL,ioos:station:DISL:KATA:1,2016-06-02T06:30:00Z,30.2583,-88.2131,4.107,20.96,1111122 
DISL,ioos:station:DISL:KATA:1,2016-06-02T07:00:00Z,30.2583,-88.2131,4.114,21.1,1111122 
DISL,ioos:station:DISL:KATA:1,2016-06-02T07:30:00Z,30.2583,-88.2131,4.129,20.84,1111122 
DISL,ioos:station:DISL:KATA:1,2016-06-02T08:00:00Z,30.2583,-88.2131,4.149,20.94,1111122 
DISL,ioos:station:DISL:KATA:1,2016-06-02T08:30:00Z,30.2583,-88.2131,4.169,20.84,1111122 
DISL,ioos:station:DISL:KATA:1,2016-06-02T09:00:00Z,30.2583,-88.2131,4.191,20.87,1111122 
DISL,ioos:station:DISL:KATA:1,2016-06-02T09:30:00Z,30.2583,-88.2131,4.219,20.69,1111122 
DISL,ioos:station:DISL:KATA:1,2016-06-02T10:00:00Z,30.2583,-88.2131,4.248,20.61,1111122 
DISL,ioos:station:DISL:KATA:1,2016-06-02T10:30:00Z,30.2583,-88.2131,4.286,20.68,1111122 
DISL,ioos:station:DISL:KATA:1,2016-06-02T11:00:00Z,30.2583,-88.2131,4.319,20.73,1111122 
DISL,ioos:station:DISL:KATA:1,2016-06-02T11:30:00Z,30.2583,-88.2131,4.326,20.77,1111122 
DISL,ioos:station:DISL:KATA:1,2016-06-02T12:00:00Z,30.2583,-88.2131,4.33,20.79,1111122 
DISL,ioos:station:DISL:KATA:1,2016-06-02T12:30:00Z,30.2583,-88.2131,4.333,20.75,1111122 
DISL,ioos:station:DISL:KATA:1,2016-06-02T13:00:00Z,30.2583,-88.2131,4.33,20.64,1111122 
DISL,ioos:station:DISL:KATA:1,2016-06-02T13:30:00Z,30.2583,-88.2131,4.321,20.57,1111122 
DISL,ioos:station:DISL:KATA:1,2016-06-02T14:00:00Z,30.2583,-88.2131,4.311,20.74,1111122 
DISL,ioos:station:DISL:KATA:1,2016-06-02T14:30:00Z,30.2583,-88.2131,4.299,20.75,1111122 
DISL,ioos:station:DISL:KATA:1,2016-06-02T15:00:00Z,30.2583,-88.2131,4.296,20.79,1111122 
DISL,ioos:station:DISL:KATA:1,2016-06-02T15:30:00Z,30.2583,-88.2131,4.28,20.67,1111122 
DISL,ioos:station:DISL:KATA:1,2016-06-02T16:00:00Z,30.2583,-88.2131,4.26,20.71,1111122 
DISL,ioos:station:DISL:KATA:1,2016-06-02T16:30:00Z,30.2583,-88.2131,4.236,20.63,1111122 
DISL,ioos:station:DISL:KATA:1,2016-06-02T17:00:00Z,30.2583,-88.2131,4.199,20.63,1111122 
DISL,ioos:station:DISL:KATA:1,2016-06-02T17:30:00Z,30.2583,-88.2131,4.167,20.64,1111122 
DISL,ioos:station:DISL:KATA:1,2016-06-02T18:00:00Z,30.2583,-88.2131,4.124,20.61,1111122 
DISL,ioos:station:DISL:KATA:1,2016-06-02T18:30:00Z,30.2583,-88.2131,4.077,20.54,1111122 
DISL,ioos:station:DISL:KATA:1,2016-06-02T19:00:00Z,30.2583,-88.2131,4.026,20.57,1111122 
DISL,ioos:station:DISL:KATA:1,2016-06-02T19:30:00Z,30.2583,-88.2131,3.975,20.48,1111122 
DISL,ioos:station:DISL:KATA:1,2016-06-02T20:00:00Z,30.2583,-88.2131,3.933,20.41,1111122 
DISL,ioos:station:DISL:KATA:1,2016-06-02T20:30:00Z,30.2583,-88.2131,3.905,20.4,1111122 
DISL,ioos:station:DISL:KATA:1,2016-06-02T21:00:00Z,30.2583,-88.2131,3.882,20.35,1111122 
DISL,ioos:station:DISL:KATA:1,2016-06-02T21:30:00Z,30.2583,-88.2131,3.878,20.41,1111122 
DISL,ioos:station:DISL:KATA:1,2016-06-02T22:00:00Z,30.2583,-88.2131,3.88,20.5,1111122 
DISL,ioos:station:DISL:KATA:1,2016-06-02T22:30:00Z,30.2583,-88.2131,3.9,20.54,1111122 
DISL,ioos:station:DISL:KATA:1,2016-06-02T23:00:00Z,30.2583,-88.2131,3.928,20.48,1111122 
DISL,ioos:station:DISL:KATA:1,2016-06-02T23:30:00Z,30.2583,-88.2131,3.958,20.55,1111122 
DISL,ioos:station:DISL:KATA:1,2016-06-03T00:00:00Z,30.2583,-88.2131,3.97,20.53,1111122 
DISL,ioos:station:DISL:KATA:1,2016-06-03T00:30:00Z,30.2583,-88.2131,3.969,20.72,1111122 
DISL,ioos:station:DISL:KATA:1,2016-06-03T01:00:00Z,30.2583,-88.2131,3.983,20.56,1111122 
DISL,ioos:station:DISL:KATA:1,2016-06-03T01:30:00Z,30.2583,-88.2131,3.97,20.5,1111122 
DISL,ioos:station:DISL:KATA:1,2016-06-03T02:00:00Z,30.2583,-88.2131,3.971,20.66,1111122 
DISL,ioos:station:DISL:KATA:1,2016-06-03T02:30:00Z,30.2583,-88.2131,3.978,20.57,1111122 
DISL,ioos:station:DISL:KATA:1,2016-06-03T03:00:00Z,30.2583,-88.2131,3.998,20.61,1111122 
DISL,ioos:station:DISL:KATA:1,2016-06-03T03:30:00Z,30.2583,-88.2131,4.038,20.7,1111122 
DISL,ioos:station:DISL:KATA:1,2016-06-03T04:00:00Z,30.2583,-88.2131,4.068,20.63,1111122 
DISL,ioos:station:DISL:KATA:1,2016-06-03T04:30:00Z,30.2583,-88.2131,4.106,20.47,1111122 
DISL,ioos:station:DISL:KATA:1,2016-06-03T05:00:00Z,30.2583,-88.2131,4.142,20.47,1111122 
DISL,ioos:station:DISL:KATA:1,2016-06-03T05:30:00Z,30.2583,-88.2131,4.171,20.35,1111122 
DISL,ioos:station:DISL:KATA:1,2016-06-03T06:00:00Z,30.2583,-88.2131,4.184,20.49,1111122 
DISL,ioos:station:DISL:KATA:1,2016-06-03T06:30:00Z,30.2583,-88.2131,4.206,20.34,1111122 
DISL,ioos:station:DISL:KATA:1,2016-06-03T07:00:00Z,30.2583,-88.2131,4.211,20.35,1111122 
DISL,ioos:station:DISL:KATA:1,2016-06-03T07:30:00Z,30.2583,-88.2131,4.222,20.43,1111122 
DISL,ioos:station:DISL:KATA:1,2016-06-03T08:00:00Z,30.2583,-88.2131,4.235,20.32,1111122 
DISL,ioos:station:DISL:KATA:1,2016-06-03T08:30:00Z,30.2583,-88.2131,4.256,20.37,1111122 
DISL,ioos:station:DISL:KATA:1,2016-06-03T09:00:00Z,30.2583,-88.2131,4.27,20.33,1111122 
DISL,ioos:station:DISL:KATA:1,2016-06-03T09:30:00Z,30.2583,-88.2131,4.303,20.23,1111122 
DISL,ioos:station:DISL:KATA:1,2016-06-03T10:00:00Z,30.2583,-88.2131,4.33,20.24,1111122 
DISL,ioos:station:DISL:KATA:1,2016-06-03T10:30:00Z,30.2583,-88.2131,4.365,20.21,1111122 
DISL,ioos:station:DISL:KATA:1,2016-06-03T11:00:00Z,30.2583,-88.2131,4.399,20.05,1111122 
DISL,ioos:station:DISL:KATA:1,2016-06-03T11:30:00Z,30.2583,-88.2131,4.435,20.11,1111122 
DISL,ioos:station:DISL:KATA:1,2016-06-03T12:00:00Z,30.2583,-88.2131,4.443,20.13,1111122 
DISL,ioos:station:DISL:KATA:1,2016-06-03T12:30:00Z,30.2583,-88.2131,4.451,20.11,1111122 
DISL,ioos:station:DISL:KATA:1,2016-06-03T13:00:00Z,30.2583,-88.2131,4.438,20.17,1111122 
DISL,ioos:station:DISL:KATA:1,2016-06-03T13:30:00Z,30.2583,-88.2131,4.429,20.09,1111122 
DISL,ioos:station:DISL:KATA:1,2016-06-03T14:00:00Z,30.2583,-88.2131,4.411,20.09,1111122 
DISL,ioos:station:DISL:KATA:1,2016-06-03T14:30:00Z,30.2583,-88.2131,4.409,20.09,1111122 
DISL,ioos:station:DISL:KATA:1,2016-06-03T15:00:00Z,30.2583,-88.2131,4.389,20.06,1111122 
DISL,ioos:station:DISL:KATA:1,2016-06-03T15:30:00Z,30.2583,-88.2131,4.385,20.11,1111122 
DISL,ioos:station:DISL:KATA:1,2016-06-03T16:00:00Z,30.2583,-88.2131,4.37,20.11,1111122 
DISL,ioos:station:DISL:KATA:1,2016-06-03T16:30:00Z,30.2583,-88.2131,4.346,20.31,1111122 
DISL,ioos:station:DISL:KATA:1,2016-06-03T17:00:00Z,30.2583,-88.2131,4.329,20.07,1111122 
DISL,ioos:station:DISL:KATA:1,2016-06-03T17:30:00Z,30.2583,-88.2131,4.288,20.02,1111122 
DISL,ioos:station:DISL:KATA:1,2016-06-03T18:00:00Z,30.2583,-88.2131,4.242,20.03,1111122 
DISL,ioos:station:DISL:KATA:1,2016-06-03T18:30:00Z,30.2583,-88.2131,4.186,20.03,1111122 
DISL,ioos:station:DISL:KATA:1,2016-06-03T19:00:00Z,30.2583,-88.2131,4.135,20.02,1111122 
DISL,ioos:station:DISL:KATA:1,2016-06-03T19:30:00Z,30.2583,-88.2131,4.075,20.05,1111122 
DISL,ioos:station:DISL:KATA:1,2016-06-03T20:00:00Z,30.2583,-88.2131,4.023,20.06,1111122 
DISL,ioos:station:DISL:KATA:1,2016-06-03T20:30:00Z,30.2583,-88.2131,3.979,20.15,1111122 
DISL,ioos:station:DISL:KATA:1,2016-06-03T21:00:00Z,30.2583,-88.2131,3.942,20.21,1111122 
DISL,ioos:station:DISL:KATA:1,2016-06-03T21:30:00Z,30.2583,-88.2131,3.902,20.34,1111122 
DISL,ioos:station:DISL:KATA:1,2016-06-03T22:00:00Z,30.2583,-88.2131,3.875,20.28,1111122 
DISL,ioos:station:DISL:KATA:1,2016-06-03T22:30:00Z,30.2583,-88.2131,3.859,20.32,1111122 
DISL,ioos:station:DISL:KATA:1,2016-06-03T23:00:00Z,30.2583,-88.2131,3.837,20.37,1111122 
DISL,ioos:station:DISL:KATA:1,2016-06-03T23:30:00Z,30.2583,-88.2131,3.849,20.38,1111122 
DISL,ioos:station:DISL:KATA:1,2016-06-04T00:00:00Z,30.2583,-88.2131,3.86,20.53,1111122 
DISL,ioos:station:DISL:KATA:1,2016-06-04T00:30:00Z,30.2583,-88.2131,3.866,20.4,1111122 
DISL,ioos:station:DISL:KATA:1,2016-06-04T01:00:00Z,30.2583,-88.2131,3.879,20.39,1111122 
DISL,ioos:station:DISL:KATA:1,2016-06-04T01:30:00Z,30.2583,-88.2131,3.889,20.43,1111122 
DISL,ioos:station:DISL:KATA:1,2016-06-04T02:00:00Z,30.2583,-88.2131,3.899,20.55,1111122 
DISL,ioos:station:DISL:KATA:1,2016-06-04T02:30:00Z,30.2583,-88.2131,3.919,20.51,1111122 
DISL,ioos:station:DISL:KATA:1,2016-06-04T03:00:00Z,30.2583,-88.2131,3.968,20.43,1111122 
DISL,ioos:station:DISL:KATA:1,2016-06-04T03:30:00Z,30.2583,-88.2131,4.0,20.44,1111122 
DISL,ioos:station:DISL:KATA:1,2016-06-04T04:00:00Z,30.2583,-88.2131,4.03,20.43,1111122 
DISL,ioos:station:DISL:KATA:1,2016-06-04T04:30:00Z,30.2583,-88.2131,4.083,20.32,1111122 
DISL,ioos:station:DISL:KATA:1,2016-06-04T05:00:00Z,30.2583,-88.2131,4.159,20.25,1111122 
DISL,ioos:station:DISL:KATA:1,2016-06-04T05:30:00Z,30.2583,-88.2131,4.215,20.18,1111122 
DISL,ioos:station:DISL:KATA:1,2016-06-04T06:00:00Z,30.2583,-88.2131,4.241,20.17,1111122 
DISL,ioos:station:DISL:KATA:1,2016-06-04T06:30:00Z,30.2583,-88.2131,4.187,20.12,1111122 
DISL,ioos:station:DISL:KATA:1,2016-06-04T07:00:00Z,30.2583,-88.2131,4.117,20.28,1111122 
DISL,ioos:station:DISL:KATA:1,2016-06-04T07:30:00Z,30.2583,-88.2131,4.089,20.13,1111122 
DISL,ioos:station:DISL:KATA:1,2016-06-04T08:00:00Z,30.2583,-88.2131,4.106,20.11,1111122 
DISL,ioos:station:DISL:KATA:1,2016-06-04T08:30:00Z,30.2583,-88.2131,4.165,20.18,1111122 
DISL,ioos:station:DISL:KATA:1,2016-06-04T09:00:00Z,30.2583,-88.2131,4.23,20.28,1111122 
DISL,ioos:station:DISL:KATA:1,2016-06-04T09:30:00Z,30.2583,-88.2131,4.275,20.12,1111122 
DISL,ioos:station:DISL:KATA:1,2016-06-04T10:00:00Z,30.2583,-88.2131,4.325,20.2,1111122 
DISL,ioos:station:DISL:KATA:1,2016-06-04T10:30:00Z,30.2583,-88.2131,4.371,20.09,1111122 
DISL,ioos:station:DISL:KATA:1,2016-06-04T11:00:00Z,30.2583,-88.2131,4.405,20.09,1111122 
DISL,ioos:station:DISL:KATA:1,2016-06-04T11:30:00Z,30.2583,-88.2131,4.443,20.18,1111122 
DISL,ioos:station:DISL:KATA:1,2016-06-04T12:00:00Z,30.2583,-88.2131,4.449,19.99,1111122 
DISL,ioos:station:DISL:KATA:1,2016-06-04T12:30:00Z,30.2583,-88.2131,4.471,20.02,1111122 
DISL,ioos:station:DISL:KATA:1,2016-06-04T13:00:00Z,30.2583,-88.2131,4.487,19.84,1111122 
DISL,ioos:station:DISL:KATA:1,2016-06-04T13:30:00Z,30.2583,-88.2131,4.505,19.78,1111122 
DISL,ioos:station:DISL:KATA:1,2016-06-04T14:00:00Z,30.2583,-88.2131,4.54,19.69,1111122 
DISL,ioos:station:DISL:KATA:1,2016-06-04T14:30:00Z,30.2583,-88.2131,4.539,19.67,1111122 
DISL,ioos:station:DISL:KATA:1,2016-06-04T15:00:00Z,30.2583,-88.2131,4.504,19.58,1111122 
DISL,ioos:station:DISL:KATA:1,2016-06-04T15:30:00Z,30.2583,-88.2131,4.462,19.68,1111122 
DISL,ioos:station:DISL:KATA:1,2016-06-04T16:00:00Z,30.2583,-88.2131,4.452,19.6,1111122 
DISL,ioos:station:DISL:KATA:1,2016-06-04T16:30:00Z,30.2583,-88.2131,4.453,19.54,1111122 
DISL,ioos:station:DISL:KATA:1,2016-06-04T17:00:00Z,30.2583,-88.2131,4.428,19.67,1111122 
DISL,ioos:station:DISL:KATA:1,2016-06-04T17:30:00Z,30.2583,-88.2131,4.394,19.65,1111122 
DISL,ioos:station:DISL:KATA:1,2016-06-04T18:00:00Z,30.2583,-88.2131,4.4,19.6,1111122 
DISL,ioos:station:DISL:KATA:1,2016-06-04T18:30:00Z,30.2583,-88.2131,4.345,19.54,1111122 
DISL,ioos:station:DISL:KATA:1,2016-06-04T19:00:00Z,30.2583,-88.2131,4.294,19.48,1111122 
DISL,ioos:station:DISL:KATA:1,2016-06-04T19:30:00Z,30.2583,-88.2131,4.246,19.43,1111122 
DISL,ioos:station:DISL:KATA:1,2016-06-04T20:00:00Z,30.2583,-88.2131,4.19,19.41,1111122 
DISL,ioos:station:DISL:KATA:1,2016-06-04T20:30:00Z,30.2583,-88.2131,4.149,19.38,1111122 
DISL,ioos:station:DISL:KATA:1,2016-06-04T21:00:00Z,30.2583,-88.2131,4.097,19.71,1111122 
DISL,ioos:station:DISL:KATA:1,2016-06-04T21:30:00Z,30.2583,-88.2131,4.061,19.85,1111122 
DISL,ioos:station:DISL:KATA:1,2016-06-04T22:00:00Z,30.2583,-88.2131,4.011,20.01,1111122 
DISL,ioos:station:DISL:KATA:1,2016-06-04T22:30:00Z,30.2583,-88.2131,3.965,20.07,1111122 
DISL,ioos:station:DISL:KATA:1,2016-06-04T23:00:00Z,30.2583,-88.2131,3.944,20.07,1111122 
DISL,ioos:station:DISL:KATA:1,2016-06-04T23:30:00Z,30.2583,-88.2131,3.96,20.07,1111122 
DISL,ioos:station:DISL:KATA:1,2016-06-05T00:00:00Z,30.2583,-88.2131,3.958,20.08,1111122 
DISL,ioos:station:DISL:KATA:1,2016-06-05T00:30:00Z,30.2583,-88.2131,3.949,20.27,1111122 
DISL,ioos:station:DISL:KATA:1,2016-06-05T01:00:00Z,30.2583,-88.2131,3.937,20.14,1111122 
DISL,ioos:station:DISL:KATA:1,2016-06-05T01:30:00Z,30.2583,-88.2131,3.92,20.3,1111122 
DISL,ioos:station:DISL:KATA:1,2016-06-05T02:00:00Z,30.2583,-88.2131,3.944,20.18,1111122 
DISL,ioos:station:DISL:KATA:1,2016-06-05T02:30:00Z,30.2583,-88.2131,3.938,20.35,1111122 
DISL,ioos:station:DISL:KATA:1,2016-06-05T03:00:00Z,30.2583,-88.2131,3.922,20.37,1111122 
DISL,ioos:station:DISL:KATA:1,2016-06-05T03:30:00Z,30.2583,-88.2131,3.917,20.37,1111122 
DISL,ioos:station:DISL:KATA:1,2016-06-05T04:00:00Z,30.2583,-88.2131,3.939,20.38,1111122 
DISL,ioos:station:DISL:KATA:1,2016-06-05T04:30:00Z,30.2583,-88.2131,3.972,20.24,1111122 
DISL,ioos:station:DISL:KATA:1,2016-06-05T05:00:00Z,30.2583,-88.2131,4.017,20.37,1111122 
DISL,ioos:station:DISL:KATA:1,2016-06-05T05:30:00Z,30.2583,-88.2131,4.053,20.37,1111122 
DISL,ioos:station:DISL:KATA:1,2016-06-05T06:00:00Z,30.2583,-88.2131,4.097,20.18,1111122 
DISL,ioos:station:DISL:KATA:1,2016-06-05T06:30:00Z,30.2583,-88.2131,4.259,20.14,1111122 
DISL,ioos:station:DISL:KATA:1,2016-06-05T07:00:00Z,30.2583,-88.2131,4.322,20.11,1111122 
DISL,ioos:station:DISL:KATA:1,2016-06-05T07:30:00Z,30.2583,-88.2131,4.211,20.15,1111122 
DISL,ioos:station:DISL:KATA:1,2016-06-05T08:00:00Z,30.2583,-88.2131,4.169,20.03,1111122 
DISL,ioos:station:DISL:KATA:1,2016-06-05T08:30:00Z,30.2583,-88.2131,4.15,20.16,1111122 
DISL,ioos:station:DISL:KATA:1,2016-06-05T09:00:00Z,30.2583,-88.2131,4.183,20.15,1111122 
DISL,ioos:station:DISL:KATA:1,2016-06-05T09:30:00Z,30.2583,-88.2131,4.188,20.14,1111122 
DISL,ioos:station:DISL:KATA:1,2016-06-05T10:00:00Z,30.2583,-88.2131,4.188,20.13,1111122 
DISL,ioos:station:DISL:KATA:1,2016-06-05T10:30:00Z,30.2583,-88.2131,4.25,20.08,1111122 
DISL,ioos:station:DISL:KATA:1,2016-06-05T11:00:00Z,30.2583,-88.2131,4.316,20.08,1111122 
DISL,ioos:station:DISL:KATA:1,2016-06-05T11:30:00Z,30.2583,-88.2131,4.351,20.05,1111122 
DISL,ioos:station:DISL:KATA:1,2016-06-05T12:00:00Z,30.2583,-88.2131,4.398,20.0,1111122 
DISL,ioos:station:DISL:KATA:1,2016-06-05T12:30:00Z,30.2583,-88.2131,4.447,19.95,1111122 
DISL,ioos:station:DISL:KATA:1,2016-06-05T13:00:00Z,30.2583,-88.2131,4.472,19.89,1111122 
DISL,ioos:station:DISL:KATA:1,2016-06-05T13:30:00Z,30.2583,-88.2131,4.532,19.8,1111122 
DISL,ioos:station:DISL:KATA:1,2016-06-05T14:00:00Z,30.2583,-88.2131,4.547,19.7,1111122 
DISL,ioos:station:DISL:KATA:1,2016-06-05T14:30:00Z,30.2583,-88.2131,4.562,19.6,1111122 
DISL,ioos:station:DISL:KATA:1,2016-06-05T15:00:00Z,30.2583,-88.2131,4.569,19.56,1111122 
DISL,ioos:station:DISL:KATA:1,2016-06-05T15:30:00Z,30.2583,-88.2131,4.572,19.48,1111122 
DISL,ioos:station:DISL:KATA:1,2016-06-05T16:00:00Z,30.2583,-88.2131,4.57,19.44,1111122 
DISL,ioos:station:DISL:KATA:1,2016-06-05T16:30:00Z,30.2583,-88.2131,4.56,19.38,1111122 
DISL,ioos:station:DISL:KATA:1,2016-06-05T17:00:00Z,30.2583,-88.2131,4.509,19.36,1111122 
DISL,ioos:station:DISL:KATA:1,2016-06-05T17:30:00Z,30.2583,-88.2131,4.453,19.34,1111122 
DISL,ioos:station:DISL:KATA:1,2016-06-05T18:00:00Z,30.2583,-88.2131,4.423,19.38,1111122 
DISL,ioos:station:DISL:KATA:1,2016-06-05T18:30:00Z,30.2583,-88.2131,4.383,19.42,1111122 
DISL,ioos:station:DISL:KATA:1,2016-06-05T19:00:00Z,30.2583,-88.2131,4.363,19.54,1111122 
DISL,ioos:station:DISL:KATA:1,2016-06-05T19:30:00Z,30.2583,-88.2131,4.323,19.5,1111122 
DISL,ioos:station:DISL:KATA:1,2016-06-05T20:00:00Z,30.2583,-88.2131,4.293,19.45,1111122 
DISL,ioos:station:DISL:KATA:1,2016-06-05T20:30:00Z,30.2583,-88.2131,4.244,19.46,1111122 
DISL,ioos:station:DISL:KATA:1,2016-06-05T21:00:00Z,30.2583,-88.2131,4.202,19.43,1111122 
DISL,ioos:station:DISL:KATA:1,2016-06-05T21:30:00Z,30.2583,-88.2131,4.141,19.46,1111122 
DISL,ioos:station:DISL:KATA:1,2016-06-05T22:00:00Z,30.2583,-88.2131,4.085,19.64,1111122 
DISL,ioos:station:DISL:KATA:1,2016-06-05T22:30:00Z,30.2583,-88.2131,4.028,19.65,1111122 
DISL,ioos:station:DISL:KATA:1,2016-06-05T23:00:00Z,30.2583,-88.2131,3.983,19.66,1111122 
DISL,ioos:station:DISL:KATA:1,2016-06-05T23:30:00Z,30.2583,-88.2131,3.948,19.88,1111122 
DISL,ioos:station:DISL:KATA:1,2016-06-06T00:00:00Z,30.2583,-88.2131,3.919,19.98,1111122 
DISL,ioos:station:DISL:KATA:1,2016-06-06T00:30:00Z,30.2583,-88.2131,3.902,20.1,1111122 
DISL,ioos:station:DISL:KATA:1,2016-06-06T01:00:00Z,30.2583,-88.2131,3.895,20.29,1111122 
DISL,ioos:station:DISL:KATA:1,2016-06-06T01:30:00Z,30.2583,-88.2131,3.897,20.31,1111122 
DISL,ioos:station:DISL:KATA:1,2016-06-06T02:00:00Z,30.2583,-88.2131,3.907,20.31,1111122 
DISL,ioos:station:DISL:KATA:1,2016-06-06T02:30:00Z,30.2583,-88.2131,3.923,20.19,1111122 
DISL,ioos:station:DISL:KATA:1,2016-06-06T03:00:00Z,30.2583,-88.2131,3.938,20.35,1111122 
DISL,ioos:station:DISL:KATA:1,2016-06-06T03:30:00Z,30.2583,-88.2131,3.942,20.22,1111122 
DISL,ioos:station:DISL:KATA:1,2016-06-06T04:00:00Z,30.2583,-88.2131,3.951,20.39,1111122 
DISL,ioos:station:DISL:KATA:1,2016-06-06T04:30:00Z,30.2583,-88.2131,3.953,20.26,1111122 
DISL,ioos:station:DISL:KATA:1,2016-06-06T05:00:00Z,30.2583,-88.2131,3.976,20.4,1111122 
DISL,ioos:station:DISL:KATA:1,2016-06-06T05:30:00Z,30.2583,-88.2131,3.997,20.25,1111122 
DISL,ioos:station:DISL:KATA:1,2016-06-06T06:00:00Z,30.2583,-88.2131,4.028,20.13,1111122 
DISL,ioos:station:DISL:KATA:1,2016-06-06T06:30:00Z,30.2583,-88.2131,4.082,20.18,1111122 
DISL,ioos:station:DISL:KATA:1,2016-06-06T07:00:00Z,30.2583,-88.2131,4.119,20.3,1111122 
DISL,ioos:station:DISL:KATA:1,2016-06-06T07:30:00Z,30.2583,-88.2131,4.162,20.24,1111122 
DISL,ioos:station:DISL:KATA:1,2016-06-06T08:00:00Z,30.2583,-88.2131,4.199,20.04,1111122 
DISL,ioos:station:DISL:KATA:1,2016-06-06T08:30:00Z,30.2583,-88.2131,4.231,20.14,1111122 
DISL,ioos:station:DISL:KATA:1,2016-06-06T09:00:00Z,30.2583,-88.2131,4.261,19.9,1111122 
DISL,ioos:station:DISL:KATA:1,2016-06-06T09:30:00Z,30.2583,-88.2131,4.281,19.92,1111122 
DISL,ioos:station:DISL:KATA:1,2016-06-06T10:00:00Z,30.2583,-88.2131,4.306,19.8,1111122 
DISL,ioos:station:DISL:KATA:1,2016-06-06T10:30:00Z,30.2583,-88.2131,4.334,19.74,1111122 
DISL,ioos:station:DISL:KATA:1,2016-06-06T11:00:00Z,30.2583,-88.2131,4.355,19.7,1111122 
DISL,ioos:station:DISL:KATA:1,2016-06-06T11:30:00Z,30.2583,-88.2131,4.395,19.6,1111122 
DISL,ioos:station:DISL:KATA:1,2016-06-06T12:00:00Z,30.2583,-88.2131,4.417,19.72,1111122 
DISL,ioos:station:DISL:KATA:1,2016-06-06T12:30:00Z,30.2583,-88.2131,4.442,19.54,1111122 
DISL,ioos:station:DISL:KATA:1,2016-06-06T13:00:00Z,30.2583,-88.2131,4.481,19.46,1111122 
DISL,ioos:station:DISL:KATA:1,2016-06-06T13:30:00Z,30.2583,-88.2131,4.511,19.46,1111122 
DISL,ioos:station:DISL:KATA:1,2016-06-06T14:00:00Z,30.2583,-88.2131,4.545,19.37,1111122 